Miscellaneous Local Product
Issued by NWS North Platte, NE

Home | Current Version | Previous Version | Graphics & Text | Print | Product List | Glossary On
Versions: 1 2 3 4 5 6 7 8 9 10 11 12 13 14 15 16 17 18 19 20 21 22 23 24 25 26 27 28 29 30 31 32 33 34 35 36 37 38 39 40 41 42 43 44 45 46 47 48 49 50
000
AXUS43 KLBF 261310
MISLBF


WESTERN AND NORTH CENTRAL NEBRASKA HOURLY WEATHER ROUNDUP
NATIONAL WEATHER SERVICE NORTH PLATTE NE
800 AM CDT SUN MAR 26 2017

NOTE: "FAIR" INDICATES FEW OR NO CLOUDS BELOW 12,000 FEET WITH NO
SIGNIFICANT WEATHER AND/OR OBSTRUCTIONS TO VISIBILITY.

NOTE: STATIONS NOT REPORTING VARIABLES SUCH AS SKY/WEATHER OR
PRESSURE ARE PROVIDED BY RAWS AND APRS NETWORKS AND ARE NOT UNDER
NATIONAL WEATHER SERVICE QUALITY CONTROL.

...OBSERVATIONS IN AND NEAR THE EASTERN PANHANDLE OF NEBRASKA...

CITY           SKY/WX    TMP DP  RH WIND       PRES   REMARKS
PINE RIDGE     CLOUDY    45  32  60 N3        29.84R
CHADRON        CLOUDY    44  32  62 N12       29.85R
ALLIANCE       CLOUDY    37  36  96 N3        29.82R
SIDNEY         CLOUDY    42  31  64 SE6       29.82R
CRESCENT LAKE    N/A     38  38 100 SE3         N/A
$$

...OBSERVATIONS IN NORTHERN NEBRASKA AND FAR SOUTHERN SOUTH DAKOTA...

CITY           SKY/WX    TMP DP  RH WIND       PRES   REMARKS
WINNER         CLOUDY    40  39  97 SE5       29.89R FOG
VALENTINE      CLOUDY    38  36  92 S3        29.87R
THEDFORD       CLOUDY    39  38  96 SW6       29.87S FOG
AINSWORTH      FOG       38  38 100 SW3       29.87S VSB 1/2
O`NEILL        FOG       39  39  99 CALM      29.89S VSB<1/4
ORD            CLOUDY    40  37  89 CALM      29.88R FOG
BROKEN BOW     CLOUDY    40  40 100 SW5       29.87R
VALENTINE NWR    N/A     36  36 100 SW7         N/A  WCI  30
HALSEY           N/A     38  38 100 CALM        N/A
BUTTE            N/A     37  36  97 CALM        N/A
CHAMBERS         N/A     39  38  99 CALM        N/A
EWING            N/A     38  38 100 CALM        N/A
$$

...OBSERVATIONS IN SOUTHWEST NEBRASKA AND FAR NORTHEAST COLORADO...

CITY           SKY/WX    TMP DP  RH WIND       PRES   REMARKS
WRAY           CLOUDY   N/A N/A N/A MISG      29.83  HAZE
HOLYOKE        DRIZZLE   41  37  87 SE3       29.84R
IMPERIAL       FOG       39  39 100 SE8       29.85R VSB 3/4 WCI  33
OGALLALA       FOG       41  40  97 E3        29.84S VSB 1/4
NORTH PLATTE   CLOUDY    40  37  89 CALM      29.87R
MCCOOK         CLOUDY    40  40 100 SE5       29.87R FOG
LEXINGTON      CLOUDY    40  38  91 S3        29.88R
STAPLETON        N/A     37  36  95 CALM        N/A
GOTHENBURG       N/A     41  36  81 S3          N/A
CALLAWAY         N/A     38  37  96 SW8         N/A  WCI  32
$$

...OBSERVATIONS IN CENTRAL LINCOLN COUNTY AREA...

CITY           SKY/WX    TMP DP  RH WIND       PRES   REMARKS
N.P. AIRPORT   CLOUDY    40  37  89 CALM      29.87R
N.P. DOWNTOWN    N/A     39  37  94 CALM        N/A
N.P. SOUTHEAST   N/A     39  37  92 CALM        N/A
N.P. HILLCREST   N/A     39  38  95 CALM        N/A
$$

...SOME OBSERVATIONS FROM AROUND THE REGION...

CITY           SKY/WX    TMP DP  RH WIND       PRES   REMARKS
DENVER         CLOUDY    40  31  70 N9        29.81R WCI  34
LIMON          CLOUDY    39  33  79 CALM      29.79R
ASPEN          CLOUDY    35  34  96 N3        29.90R
LARAMIE        LGT RAIN  34  33  96 CALM      29.87R
CASPER         CLOUDY    37  36  96 N6        29.93R WCI  32
CHEYENNE       CLOUDY    38  34  85 N14       29.85R WCI  30
SCOTTSBLUFF    CLOUDY    41  30  65 CALM      29.82R
GRAND ISLAND   CLOUDY    38  38 100 E5        29.90R FOG     WCI  34
OMAHA          CLOUDY    40  37  89 N6        29.90S
SIOUX FALLS    CLOUDY    38  37  97 N5        29.92S FOG     WCI  34
PIERRE         CLOUDY    40  37  89 E6        29.90R
RAPID CITY     LGT RAIN  40  35  83 N22       29.84R WCI  30
BISMARCK       CLOUDY    37  34  89 E6        29.93S WCI  32
KANSAS CITY    CLOUDY    43  42  97 NW5       29.90S
HILL CITY      FOG       41  41 100 E6        29.88S VSB 1/2
WICHITA        CLOUDY    43  42  97 CALM      29.91R FOG
DODGE CITY     FOG       37  37 100 E15       29.82S VSB<1/4 WCI  28
OKLAHOMA CITY  CLOUDY    45  42  89 SE8       29.87F
DALLAS         PTCLDY    54  50  86 SE8       29.86S
AMARILLO       CLOUDY    47  31  53 S12       29.74S
$$




USA.gov is the U.S. government's official web portal to all federal, state and local government web resources and services.